TimeEDT,TemperatureF,Dew PointF,Humidity,Sea Level PressureIn,VisibilityMPH,Wind Direction,Wind SpeedMPH,Gust SpeedMPH,PrecipitationIn,Events,Conditions,WindDirDegrees,DateUTC
12:53 AM,62.6,44.6,52,30.02,10.0,SSE,9.2,-,N/A,,Clear,160,2013-03-11 04:53:00
1:53 AM,60.1,43.0,53,29.98,10.0,SSE,11.5,-,N/A,,Clear,150,2013-03-11 05:53:00
2:53 AM,60.1,46.0,60,29.97,10.0,SSE,13.8,23.0,N/A,,Clear,150,2013-03-11 06:53:00
3:53 AM,59.0,48.9,69,29.95,10.0,SSE,11.5,-,N/A,,Overcast,150,2013-03-11 07:53:00
4:53 AM,59.0,50.0,72,29.95,10.0,SSE,10.4,-,N/A,,Overcast,150,2013-03-11 08:53:00
5:53 AM,57.9,50.0,75,29.94,10.0,SSE,11.5,-,N/A,,Overcast,160,2013-03-11 09:53:00
6:19 AM,59.0,51.8,77,29.96,10.0,SSE,9.2,-,N/A,,Overcast,160,2013-03-11 10:19:00
6:53 AM,57.9,51.1,78,29.92,10.0,SSE,9.2,-,N/A,,Mostly Cloudy,150,2013-03-11 10:53:00
7:53 AM,59.0,51.1,75,29.92,10.0,SSE,6.9,-,N/A,,Overcast,150,2013-03-11 11:53:00
8:32 AM,59.0,51.8,77,29.91,10.0,SSE,8.1,19.6,N/A,,Mostly Cloudy,150,2013-03-11 12:32:00
8:53 AM,59.0,51.1,75,29.89,10.0,SSE,10.4,20.7,N/A,,Mostly Cloudy,160,2013-03-11 12:53:00
9:53 AM,59.0,52.0,78,29.88,10.0,SE,10.4,20.7,N/A,,Scattered Clouds,140,2013-03-11 13:53:00
10:53 AM,61.0,52.0,72,29.86,10.0,South,15.0,23.0,N/A,,Mostly Cloudy,170,2013-03-11 14:53:00
11:53 AM,63.0,51.1,65,29.85,10.0,SSE,17.3,28.8,N/A,,Overcast,160,2013-03-11 15:53:00
12:53 PM,63.0,52.0,67,29.82,10.0,South,16.1,21.9,N/A,,Overcast,170,2013-03-11 16:53:00
1:33 PM,59.0,55.4,88,29.85,1.8,West,5.8,-,0.05,Rain,Rain,260,2013-03-11 17:33:00
1:53 PM,57.0,55.9,96,29.84,2.0,West,8.1,-,0.18,Rain,Light Rain,270,2013-03-11 17:53:00
2:02 PM,57.2,55.4,94,29.85,4.0,West,5.8,-,0.01,Rain,Light Rain,280,2013-03-11 18:02:00
2:11 PM,57.2,55.4,94,29.85,1.8,West,6.9,-,0.04,Rain,Heavy Rain,270,2013-03-11 18:11:00
2:32 PM,57.2,55.4,94,29.86,2.5,West,6.9,-,0.17,Rain,Rain,260,2013-03-11 18:32:00
2:40 PM,55.4,53.6,94,29.86,2.5,Variable,4.6,-,0.20,Rain,Rain,0,2013-03-11 18:40:00
2:53 PM,55.9,53.1,90,29.84,2.5,WSW,4.6,-,0.25,Rain,Rain,240,2013-03-11 18:53:00
3:10 PM,55.4,53.6,94,29.86,4.0,WSW,4.6,-,0.04,Rain,Light Rain,240,2013-03-11 19:10:00
3:53 PM,54.0,54.0,100,29.84,3.0,Calm,Calm,-,0.14,Rain,Rain,0,2013-03-11 19:53:00
4:02 PM,53.6,53.6,100,29.85,2.0,Calm,Calm,-,0.05,Rain,Rain,0,2013-03-11 20:02:00
4:16 PM,53.6,53.6,100,29.84,3.0,South,3.5,-,0.08,Rain,Rain,170,2013-03-11 20:16:00
4:36 PM,53.6,53.6,100,29.84,4.0,SSE,3.5,-,0.14,Rain,Rain,160,2013-03-11 20:36:00
4:53 PM,54.0,54.0,100,29.83,3.0,Calm,Calm,-,0.20,Rain,Rain,0,2013-03-11 20:53:00
5:00 PM,53.6,53.6,100,29.84,2.5,Calm,Calm,-,0.02,Rain,Rain,0,2013-03-11 21:00:00
5:21 PM,53.6,53.6,100,29.81,4.0,ESE,4.6,-,0.08,Rain,Light Rain,120,2013-03-11 21:21:00
5:53 PM,53.1,53.1,100,29.79,8.0,Variable,5.8,-,0.18,Rain,Light Rain,0,2013-03-11 21:53:00
6:14 PM,53.6,53.6,100,29.80,7.0,WNW,4.6,-,0.02,Rain,Light Rain,300,2013-03-11 22:14:00
6:49 PM,53.6,53.6,100,29.81,10.0,Calm,Calm,-,0.04,Rain,Light Rain,0,2013-03-11 22:49:00
6:53 PM,53.6,53.6,100,29.81,10.0,Calm,Calm,-,N/A,Rain,Light Rain,0,2013-03-11 22:53:00
7:00 PM,53.6,53.6,100,29.83,10.0,West,3.5,-,0.00,Rain,Light Rain,270,2013-03-11 23:00:00
7:37 PM,51.8,50.0,94,29.84,8.0,WNW,9.2,17.3,0.00,,Overcast,290,2013-03-11 23:37:00
7:53 PM,50.0,48.0,93,29.83,10.0,WNW,8.1,-,0.00,,Overcast,290,2013-03-11 23:53:00
8:53 PM,48.9,46.9,93,29.85,8.0,West,9.2,-,0.01,Rain,Light Rain,260,2013-03-12 00:53:00
9:11 PM,48.2,46.4,93,29.87,9.0,West,9.2,-,0.01,Rain,Light Rain,280,2013-03-12 01:11:00
9:53 PM,46.9,46.0,97,29.86,9.0,West,3.5,-,0.01,Rain,Light Rain,270,2013-03-12 01:53:00
10:15 PM,46.4,44.6,93,29.88,10.0,West,4.6,-,0.01,Rain,Light Rain,270,2013-03-12 02:15:00
10:53 PM,46.0,44.1,93,29.89,10.0,West,4.6,-,0.01,,Overcast,270,2013-03-12 02:53:00
11:53 PM,44.1,39.9,85,29.90,10.0,WSW,4.6,-,0.00,,Clear,250,2013-03-12 03:53:00